User: anonymous   Login
Location: Newark
(43.0000°N, 1.6781°W)
Time: 12:57:51
(UTC+00:00)
Language:

Gurwin Techsat 1B - Orbit

View from above orbital plane
View from above orbital plane
View from above satellite
View from above satellite

Ground track
Ground track

The orbit data is extracted from the following two-line orbital elements,

1 25397U 98043D   22341.79850300  .00000093  00000-0  60396-4 0  9994
2 25397  98.8422 292.9066 0001200  17.8212 342.3008 14.23792825268097
Epoch (UTC): 07 December 2022 19:09:50
Eccentricity: 0.0001200
inclination: 98.8422°
perigee height: 811 km
apogee height: 813 km
right ascension of ascending node: 292.9066°
argument of perigee: 17.8212°
revolutions per day: 14.23792825
mean anomaly at epoch: 342.3008°
orbit number at epoch: 26809

The dashed part of the orbit path shows where the satellite is in the earth's shadow,  

DLR